sat.trackr.live / text

‹ back to catalog

CAS500-3

NORAD 66655 · 2025-274F

PAYLOAD ACTIVE UNKNOWN

§ Identity

Operator
Country
SKOR
Launch date
2025-11-26
Launch site
NSC
Launch vehicle
Mass (kg)
RCS (m²)

Purposes: earth_obs

External: N2YO · Heavens-Above · Gunter

§ Orbital elements

Epoch: 2026-09-20T01:51:40.604256Z

Period
96.75 min
Inclination
97.7430°
Eccentricity
0.0002832
Mean motion
14.88332150 rev/d
Perigee alt
601.2 km
Apogee alt
605.1 km
Semi-major
6,981.3 km
B*
8.9301e-5
RAAN
188.9545°
Arg perigee
291.2577°
Mean anomaly
68.8337°
Rev number
4,426

§ Raw data

CAS500-31 66655U 25274F   26263.07755329  .00000773  00000+0  89301-4 0  99962 66655  97.7430 188.9545 0002832 291.2577  68.8337 14.88332150 44264

JSON: /api/v1/satellites/66655 · /tle

For live sub-satellite position, see the globe view (requires WebGL).

§ Visibility from observer

Set your observer location to see the next 7 days of passes ≥ 10°. The values pass through the URL so the page stays shareable.

No JS? Fill the form by hand. The geolocation button needs JavaScript.